This is the latest recevied weather packets stored in our database for station/object TONGUE. If no packets are shown the sender has not sent any weather packets the latest 10 day(s).
| Time | Temp. | Humidity | Pressure | Rain* | Wind** | Luminosity | Snow |
|---|---|---|---|---|---|---|---|
| 1777144803 | 15.56° C | 35% | 0 hPa | - | - | - | - |
| 1777144203 | 15.56° C | 36% | 0 hPa | - | - | - | - |
| 1777143604 | 15° C | 39% | 0 hPa | - | - | - | - |
| 1777143003 | 14.44° C | 37% | 0 hPa | - | - | - | - |
| 1777142403 | 14.44° C | 36% | 0 hPa | - | - | - | - |
| 1777141803 | 14.44° C | 42% | 0 hPa | - | - | - | - |
| 1777141203 | 13.89° C | 45% | 0 hPa | - | - | - | - |
| 1777140603 | 13.89° C | 50% | 0 hPa | - | - | - | - |
| 1777140004 | 12.78° C | 52% | 0 hPa | - | - | - | - |
| 1777139403 | 12.22° C | 54% | 0 hPa | - | - | - | - |
| 1777138803 | 11.67° C | 55% | 0 hPa | - | - | - | - |
| 1777138203 | 11.11° C | 56% | 0 hPa | - | - | - | - |
| 1777137603 | 11.67° C | 61% | 0 hPa | - | - | - | - |
| 1777137003 | 11.11° C | 59% | 0 hPa | - | - | - | - |
| 1777136404 | 11.11° C | 58% | 0 hPa | - | - | - | - |
| 1777135803 | 10.56° C | 58% | 0 hPa | - | - | - | - |
| 1777135203 | 11.11° C | 61% | 0 hPa | - | - | - | - |
| 1777134003 | 10° C | 75% | 0 hPa | - | - | - | - |
| 1777133403 | 10° C | 76% | 0 hPa | - | - | - | - |
| 1777132803 | 9.44° C | 79% | 0 hPa | - | - | - | - |
| 1777132203 | 8.89° C | 82% | 0 hPa | - | - | - | - |
| 1777131603 | 8.33° C | 83% | 0 hPa | - | - | - | - |
| 1777131004 | 8.33° C | 87% | 0 hPa | - | - | - | - |
| 1777130403 | 7.78° C | 89% | 0 hPa | - | - | - | - |
| 1777129802 | 7.78° C | 85% | 0 hPa | - | - | - | - |
* Rain since midnight (hover to see other rain measurements)
** Current wind speed in m/s (hover to see current wind gust speed)